Weather in Mud'yuga

Russia / Arkhangel'skaya Oblast'     63°46′32″N   39°15′01″E
temp.,
°C
wind,
m/s
gust,
m/s
humid.,
%
clouds,
%
prec.,
mm/h
press.,
hPa
HPBL,
m
11 april, sun
sun1100:00+1sw31098100 6.1 1009614
03:00+1sw51283100 6.1 10101030
06:000sw5128393 0.0 1012785
09:00+2sw514745 0.1 10151387
12:00+5sw6146939 0.0 10161506
15:00+5wsw714652 1.2 10181836
18:00+4wsw613635 0.0 10211308
21:00+3wsw513695 0.0 1024956
12 april, mon
mon1200:00+2wsw514734 0.0 1027698
03:000sw398073 0.0 1030278
06:00−1ssw288763 0.0 1031229
09:00+4ssw376591 0.0 1031448
12:00+8ssw474797 0.0 10301260
15:00+4se31087100 1.7 1028718
18:00+8ssw41281100 0.1 1025817
21:00+8ssw5158863 0.1 1024691
13 april, tue
tue1300:00+8ssw41487100 0.0 1023629
03:00+7s4118999 0.0 1023376
06:00+5s3109274 0.0 1021306
09:00+9ssw487785 0.0 1019516
12:00+11ssw4766100 0.0 1018885
15:00+13sw476199 0.0 10171085
18:00+11sw487082 0.1 1017723
21:00+9sw31082100 0.4 1016582
14 april, wed
wed1400:00+8ssw3108690 0.1 1016435
03:00+8ssw41382100 0.1 1015703
06:00+8sw51283100 0.0 10141213
09:00+7wsw5117297 0.2 10141285
12:00+8w6134834 0.1 10151795
15:00+6wnw6104949 0.1 10181799
18:00+4wnw510685 0.0 10201221
21:00+1wnw37695 0.0 1023395
15 april, thu
thu1500:00−1wnw11825 0.0 102431
03:00−1wsw23845 0.0 102465
06:00−1sw25825 0.0 1024214
09:00+3wsw3553100 0.0 1022877
12:00+5wnw5758100 0.0 10221346
15:00+4nw576295 0.0 10231326
18:00+3nw596822 0.1 10251305
21:000nw410685 0.1 1026814